AJ5TT Weather Reports


time (UTC)temp
C
wind
direction
speed
KPH
gust
KPH
rain 1hr
cm
rain 24hr
cm
rain mn
cm
humidity
%
barometer
mb
20260509164555 27 194 3.2 14.5 0.00 0.00 0.00 82 1011.4
20260509163104 27 224 1.6 6.4 0.00 0.00 0.00 84 1011.5
20260509161556 27 237 3.2 6.4 0.00 0.00 0.00 84 1011.4
20260509160052 27 238 0.0 6.4 0.00 0.00 0.00 85 1011.1
20260509154606 26 224 1.6 8.0 0.00 0.00 0.00 86 1011.1
20260509153055 26 207 1.6 8.0 0.00 0.00 0.00 88 1010.9
20260509151556 25 195 1.6 6.4 0.00 0.00 0.00 90 1011.1
20260509150108 25 0 0.0 4.8 0.00 0.00 0.00 91 1010.7
20260509144602 25 223 0.0 3.2 0.00 0.00 0.00 93 1011.0
20260509143102 24 161 1.6 8.0 0.00 0.00 0.00 94 1011.1
20260509141554 24 246 0.0 4.8 0.00 0.00 0.00 94 1011.4
20260509140059 24 214 1.6 8.0 0.00 0.00 0.00 95 1011.0
20260509134556 23 252 1.6 3.2 0.00 0.00 0.00 96 1010.9
20260509133100 23 221 0.0 3.2 0.00 0.00 0.00 96 1010.9
20260509131555 23 252 1.6 4.8 0.00 0.00 0.00 96 1011.2
20260509130056 23 211 1.6 3.2 0.00 0.00 0.00 96 1011.1
20260509124602 23 0 0.0 4.8 0.00 0.00 0.00 96 1011.1
20260509123103 23 194 0.0 3.2 0.00 0.00 0.00 96 1011.2
20260509121600 23 0 0.0 3.2 0.00 0.00 0.00 96 1011.1
20260509120054 23 0 0.0 3.2 0.00 0.00 0.00 95 1011.2
20260509114603 23 45 0.0 3.2 0.00 0.00 0.00 95 1011.2
20260509113107 23 22 0.0 3.2 0.00 0.00 0.00 95 1011.1
20260509111551 23 0 0.0 3.2 0.00 0.00 0.00 95 1011.0
20260509110054 23 0 0.0 3.2 0.00 0.00 0.00 95 1010.8
20260509104553 23 0 0.0 3.2 0.00 0.00 0.00 95 1010.5
20260509103052 23 0 0.0 0.0 0.00 0.00 0.00 95 1010.5
20260509101555 23 22 0.0 3.2 0.00 0.00 0.00 95 1010.5
20260509100056 23 0 0.0 0.0 0.00 0.00 0.00 95 1010.6
20260509094554 23 0 0.0 1.6 0.00 0.00 0.00 95 1010.4
20260509093054 23 22 0.0 3.2 0.00 0.00 0.00 95 1010.3
20260509091600 23 0 0.0 3.2 0.00 0.00 0.00 95 1010.0
20260509090115 23 22 0.0 3.2 0.00 0.00 0.00 95 1010.0
20260509084552 23 23 0.0 3.2 0.00 0.00 0.00 95 1009.9
20260509083059 23 0 0.0 0.0 0.00 0.00 0.00 95 1010.0
20260509081600 22 0 0.0 0.0 0.00 0.00 0.00 95 1010.3
20260509080109 22 0 0.0 3.2 0.00 0.00 0.00 94 1010.2
20260509074555 22 0 0.0 0.0 0.00 0.00 0.00 95 1010.6
20260509073106 22 0 0.0 0.0 0.00 0.00 0.00 95 1010.7
20260509071556 22 0 0.0 0.0 0.00 0.00 0.00 94 1010.9
20260509070058 22 128 0.0 1.6 0.00 0.00 0.00 94 1010.6
20260509064552 22 0 0.0 1.6 0.00 0.00 0.00 94 1010.6
20260509063109 22 0 0.0 0.0 0.00 0.00 0.00 94 1010.8
20260509061558 23 0 0.0 0.0 0.00 0.00 0.00 93 1010.8
20260509060056 23 0 0.0 1.6 0.00 0.00 0.00 93 1010.8
20260509054554 23 0 0.0 3.2 0.00 0.00 0.00 93 1010.8
20260509053050 23 195 0.0 3.2 0.00 0.00 0.00 93 1011.0
20260509051553 23 145 0.0 3.2 0.00 0.00 0.00 93 1010.8
20260509050104 23 0 0.0 3.2 0.00 0.00 0.00 92 1011.1
20260509044601 24 171 0.0 3.2 0.00 0.00 0.00 92 1011.1
20260509043101 24 186 0.0 3.2 0.00 0.00 0.00 92 1011.3
20260509041555 24 352 0.0 3.2 0.00 0.00 0.00 92 1011.1
20260509040055 23 0 0.0 3.2 0.00 0.00 0.00 92 1011.1
20260509034604 23 54 0.0 4.8 0.00 0.00 0.00 92 1010.8
20260509033109 23 108 1.6 6.4 0.00 0.00 0.00 92 1010.7
20260509031556 23 62 1.6 4.8 0.00 0.00 0.00 92 1010.7
20260509030058 23 61 1.6 6.4 0.00 0.00 0.00 92 1010.6
20260509024603 23 63 1.6 6.4 0.00 0.00 0.00 92 1010.6
20260509023056 23 0 0.0 3.2 0.00 0.00 0.00 92 1010.4
20260509021556 23 14 0.0 4.8 0.00 0.00 0.00 91 1010.5
20260509020057 23 69 1.6 6.4 0.00 0.00 0.00 91 1010.0
20260509014553 23 44 3.2 9.7 0.00 0.00 0.00 91 1010.1
20260509013110 23 76 1.6 4.8 0.00 0.00 0.00 91 1010.2
20260509011602 23 61 1.6 9.7 0.00 0.00 0.00 91 1010.2
20260509010058 23 309 1.6 6.4 0.00 0.00 0.00 91 1009.9
20260509004601 23 38 1.6 12.9 0.00 0.00 0.00 90 1010.1
20260509003053 23 39 4.8 9.7 0.00 0.00 0.00 90 1010.2
20260509001554 23 46 3.2 9.7 0.00 0.00 0.00 89 1009.6
20260509000053 24 45 3.2 8.0 0.00 0.00 0.00 88 1009.8
20260508234556 24 22 1.6 4.8 0.00 0.00 0.00 88 1010.1
20260508233055 24 39 3.2 11.3 0.00 0.00 0.00 87 1010.4
20260508231556 24 37 1.6 6.4 0.00 0.00 0.00 86 1009.8
20260508230056 24 73 1.6 6.4 0.00 0.00 0.00 85 1010.2
20260508224615 25 267 1.6 9.7 0.00 0.00 0.00 84 1010.1
20260508223057 24 360 1.6 6.4 0.00 0.00 0.00 86 1009.9
20260508221611 23 48 3.2 6.4 0.00 0.00 0.00 86 1010.3
20260508220100 23 61 4.8 9.7 0.00 0.00 0.00 86 1010.3
20260508214600 23 9 0.0 3.2 0.00 0.00 0.00 86 1010.5
20260508213058 23 332 0.0 3.2 0.00 0.00 0.00 86 1010.6
20260508211600 23 312 1.6 3.2 0.00 0.00 0.00 85 1010.6
20260508210110 23 63 3.2 9.7 0.00 0.00 0.00 84 1010.7
20260508204610 24 0 0.0 8.0 0.00 0.00 0.00 85 1010.8
20260508203108 24 5 1.6 8.0 0.00 0.00 0.00 84 1010.9
20260508201609 23 49 3.2 8.0 0.00 0.00 0.00 84 1011.3
20260508200111 23 323 0.0 6.4 0.00 0.00 0.00 83 1011.3
20260508194602 25 145 1.6 9.7 0.00 0.00 0.00 83 1011.4
20260508193101 23 79 4.8 9.7 0.00 0.00 0.00 84 1011.5
20260508191553 23 75 3.2 12.9 0.00 0.00 0.00 86 1011.5
20260508190050 21 63 4.8 16.1 0.00 0.00 0.00 91 1011.5
20260508184553 20 30 6.4 17.7 0.00 0.00 0.00 92 1011.8
20260508183130 20 63 4.8 14.5 0.00 0.00 0.00 92 1011.9
20260508181609 20 9 6.4 16.1 0.00 0.00 0.00 91 1012.4
20260508180052 20 40 6.4 12.9 0.00 0.00 0.00 91 1012.3
20260508174555 20 9 4.8 9.7 0.00 0.00 0.00 91 1012.5
20260508173102 20 19 1.6 9.7 0.00 0.00 0.00 91 1012.6
20260508171558 20 74 4.8 16.1 0.00 0.00 0.00 92 1012.2
20260508170052 20 40 6.4 14.5 0.00 0.00 0.00 92 1012.8